Regional Weather Roundup
Issued by NWS

Home | Current Version | Previous Version | Text Only | Print | Product List | Glossary On
Versions: 1 2 3 4 5 6 7 8 9 10 11 12 13 14 15 16 17 18 19 20 21 22 23 24 25 26 27 28 29 30 31 32 33 34 35 36 37 38 39 40 41 42 43 44 45 46 47 48 49 50
000
ASUS44 KOUN 280610
RWROK

WEATHER ROUNDUP FOR OKLAHOMA
NATIONAL WEATHER SERVICE NORMAN OK
1200 AM CST SAT FEB 28 2015

NOTE: "FAIR" INDICATES FEW OR NO CLOUDS BELOW 12,000 FEET WITH NO
      SIGNIFICANT WEATHER AND/OR OBSTRUCTIONS TO VISIBILITY.

OKZ001>007-009>012-014-015-017-280700-
NORTHWEST OKLAHOMA AND THE PANHANDLE

CITY           SKY/WX    TMP DP  RH WIND       PRES   REMARKS
GAGE           CLOUDY    14   8  77 SE8       30.34F WCI   3
6HR MIN TEMP:  14; 6HR MAX TEMP:  15; 6HR PCP: TRACE;

ENID/WOODRING  MOCLDY    18  14  86 E7        30.45F WCI   8
$$

OKZ016-021>023-033>039-044-045-280700-
SOUTHWEST OKLAHOMA

CITY           SKY/WX    TMP DP  RH WIND       PRES   REMARKS
LAWTON/REGL    CLOUDY    20  15  81 NE9       30.43F WCI   9
6HR MIN TEMP:  19; 6HR MAX TEMP:  20; 6HR PCP:  0.01;

LAWTON/FT SILL CLOUDY    18  15  87 NE8       30.41F WCI   8
FREDERICK      LGT SNOW  18  15  88 E10       30.39F VSB 1   WCI   6
CLINTON        CLOUDY    17  12  80 E10       30.38F WCI   5
HOBART         CLOUDY    17  14  88 E10       30.40F WCI   5
ALTUS AFB      CLOUDY    18  17  94 E6        30.41S WCI  10
$$

OKZ018>020-024>031-280700-
CENTRAL OKLAHOMA

CITY           SKY/WX    TMP DP  RH WIND       PRES   REMARKS
OKLAHOMA CITY  FLURRIES  19  12  74 E8        30.43F WCI   9
6HR MIN TEMP:  19; 6HR MAX TEMP:  20; 6HR PCP: TRACE;

OKC/WILEY POST CLOUDY    18  13  80 NE8       30.44F WCI   8
OKC/TINKER AFB CLOUDY    17  13  82 E7        30.42F WCI   8
STILLWATER     CLOUDY    18  12  77 E7        30.47F WCI   9
GUTHRIE        CLOUDY    18  12  77 E7        30.46F WCI   9
$$

OKZ008-013-054>072-280700-
NORTHEAST OKLAHOMA

CITY           SKY/WX    TMP DP  RH WIND       PRES   REMARKS
TULSA          CLOUDY    19  15  84 E6        30.52F WCI  11
6HR MIN TEMP:  18; 6HR MAX TEMP:  20; 6HR PCP: TRACE;

TULSA/JONES    CLOUDY    20  15  81 E7        30.52F WCI  11
PONCA CITY     CLOUDY    18  12  77 E8        30.48F WCI   8
BARTLESVILLE   CLOUDY    17  14  88 N3        30.54F
MUSKOGEE       LGT SNOW  21  17  84 NE5       30.53F FOG     WCI  15
$$

OKZ032-040>043-046>053-073>077-280700-
SOUTH CENTRAL/SOUTHEAST OKLAHOMA

CITY           SKY/WX    TMP DP  RH WIND       PRES   REMARKS
ARDMORE/DWNTWN CLOUDY    23  19  86 E7        30.44F WCI  15
MCALESTER      LGT SNOW  21  18  88 NE6       30.48F FOG     WCI  13
$$




USA.gov is the U.S. government's official web portal to all federal, state and local government web resources and services.